• In Deutschland
  • Länderverzeichnis
  • Für 7 Tage
  • Wassertemperatur
  • Satellitenkarten
  • Wetterkarte
  • Widgets
  • user-avatar
    Anmelden

    Stündliche Wetter Nachiczewan

    Heute, 22 Juli, Samstag

    Zeit Temperatur Niederschläge Wind Luftdruck Luftfeuchtigkeit
    00:00 +30°C° 0 mm 2 m/S 686 mmHg 29%
    01:00 +29°C° 0 mm 2 m/S 686 mmHg 29%
    02:00 +28°C° 0 mm 2 m/S 686 mmHg 30%
    03:00 +28°C° 0 mm 3 m/S 686 mmHg 30%
    04:00 +28°C° 0 mm 2 m/S 686 mmHg 30%
    05:00 +29°C° 0 mm 2 m/S 686 mmHg 29%
    06:00 +29°C° 0 mm 2 m/S 687 mmHg 29%
    07:00 +31°C° 0 mm 2 m/S 687 mmHg 26%
    08:00 +34°C° 0 mm 2 m/S 688 mmHg 22%
    09:00 +35°C° 0 mm 2 m/S 688 mmHg 18%
    10:00 +37°C° 0 mm 2 m/S 688 mmHg 17%
    11:00 +38°C° 0 mm 3 m/S 688 mmHg 15%
    12:00 +40°C° 0 mm 3 m/S 688 mmHg 13%
    13:00 +41°C° 0 mm 4 m/S 687 mmHg 12%
    14:00 +42°C° 0 mm 4 m/S 687 mmHg 12%
    15:00 +43°C° 0 mm 4 m/S 687 mmHg 11%
    16:00 +42°C° 0 mm 4 m/S 687 mmHg 12%
    17:00 +42°C° 0 mm 5 m/S 686 mmHg 13%
    18:00 +41°C° 0 mm 5 m/S 686 mmHg 13%
    19:00 +38°C° 0 mm 4 m/S 686 mmHg 17%
    20:00 +36°C° 0 mm 3 m/S 686 mmHg 21%
    21:00 +34°C° 0 mm 3 m/S 686 mmHg 25%
    22:00 +33°C° 0 mm 3 m/S 686 mmHg 27%
    23:00 +31°C° 0 mm 2 m/S 686 mmHg 28%

    Morgen, 23 Juli, Sonntag

    Zeit Temperatur Niederschläge Wind Luftdruck Luftfeuchtigkeit
    00:00 +31°C° 0 mm 2 m/S 686 mmHg 30%
    01:00 +30°C° 0 mm 2 m/S 685 mmHg 31%
    02:00 +29°C° 0 mm 2 m/S 685 mmHg 32%
    03:00 +29°C° 0 mm 2 m/S 685 mmHg 33%
    04:00 +29°C° 0 mm 2 m/S 685 mmHg 32%
    05:00 +29°C° 0 mm 2 m/S 685 mmHg 32%
    06:00 +30°C° 0 mm 1 m/S 685 mmHg 31%
    07:00 +31°C° 0 mm 1 m/S 685 mmHg 28%
    08:00 +33°C° 0 mm 1 m/S 685 mmHg 24%
    09:00 +36°C° 0 mm 2 m/S 685 mmHg 21%
    10:00 +37°C° 0 mm 2 m/S 685 mmHg 18%
    11:00 +39°C° 0 mm 2 m/S 685 mmHg 16%
    12:00 +40°C° 0 mm 3 m/S 684 mmHg 14%
    13:00 +42°C° 0 mm 3 m/S 684 mmHg 13%
    14:00 +43°C° 0 mm 4 m/S 684 mmHg 12%
    15:00 +43°C° 0 mm 4 m/S 683 mmHg 12%
    16:00 +43°C° 0 mm 4 m/S 683 mmHg 13%
    17:00 +42°C° 0 mm 4 m/S 683 mmHg 14%
    18:00 +42°C° 0 mm 5 m/S 682 mmHg 15%
    19:00 +40°C° 0 mm 5 m/S 683 mmHg 18%
    20:00 +37°C° 0 mm 4 m/S 683 mmHg 22%
    21:00 +35°C° 0 mm 4 m/S 683 mmHg 25%
    22:00 +34°C° 0 mm 4 m/S 683 mmHg 27%
    23:00 +31°C° 0 mm 3 m/S 684 mmHg 29%

    übermorgen, 24 Juli, Montag

    Zeit Temperatur Niederschläge Wind Luftdruck Luftfeuchtigkeit
    00:00 +30°C° 0 mm 3 m/S 684 mmHg 32%
    01:00 +30°C° 0 mm 3 m/S 684 mmHg 33%
    02:00 +29°C° 0 mm 3 m/S 684 mmHg 34%
    03:00 +28°C° 0 mm 2 m/S 683 mmHg 36%
    04:00 +28°C° 0 mm 2 m/S 684 mmHg 36%
    05:00 +28°C° 0 mm 2 m/S 684 mmHg 36%
    06:00 +28°C° 0 mm 2 m/S 684 mmHg 36%
    07:00 +29°C° 0 mm 2 m/S 684 mmHg 33%
    08:00 +31°C° 0 mm 2 m/S 684 mmHg 29%
    09:00 +34°C° 0 mm 2 m/S 684 mmHg 25%
    10:00 +35°C° 0 mm 3 m/S 684 mmHg 22%
    11:00 +36°C° 0 mm 3 m/S 684 mmHg 20%
    12:00 +38°C° 0 mm 4 m/S 684 mmHg 17%
    13:00 +40°C° 0 mm 4 m/S 683 mmHg 16%
    14:00 +40°C° 0 mm 5 m/S 683 mmHg 15%
    15:00 +41°C° 0 mm 6 m/S 683 mmHg 14%
    16:00 +40°C° 0 mm 6 m/S 683 mmHg 17%
    17:00 +40°C° 0 mm 6 m/S 682 mmHg 19%
    18:00 +39°C° 0 mm 6 m/S 682 mmHg 21%
    19:00 +36°C° 0 mm 5 m/S 682 mmHg 27%
    20:00 +34°C° 0 mm 4 m/S 683 mmHg 32%
    21:00 +31°C° 0 mm 3 m/S 683 mmHg 38%
    22:00 +30°C° 0 mm 3 m/S 683 mmHg 40%
    23:00 +29°C° 0 mm 2 m/S 683 mmHg 42%

    25 Juli, Dienstag

    Zeit Temperatur Niederschläge Wind Luftdruck Luftfeuchtigkeit
    00:00 +29°C° 0 mm 2 m/S 683 mmHg 44%
    01:00 +28°C° 0 mm 2 m/S 683 mmHg 44%
    02:00 +28°C° 0 mm 2 m/S 683 mmHg 45%
    03:00 +27°C° 0 mm 1 m/S 683 mmHg 46%
    04:00 +27°C° 0 mm 1 m/S 683 mmHg 45%
    05:00 +28°C° 0 mm 1 m/S 683 mmHg 44%
    06:00 +28°C° 0 mm 1 m/S 683 mmHg 43%
    07:00 +29°C° 0 mm 1 m/S 683 mmHg 39%
    08:00 +31°C° 0 mm 1 m/S 684 mmHg 35%
    09:00 +33°C° 0 mm 1 m/S 684 mmHg 30%
    10:00 +35°C° 0 mm 2 m/S 683 mmHg 27%
    11:00 +36°C° 0 mm 2 m/S 683 mmHg 24%
    12:00 +38°C° 0 mm 3 m/S 683 mmHg 21%
    13:00 +38°C° 0 mm 3 m/S 683 mmHg 18%
    14:00 +39°C° 0 mm 3 m/S 682 mmHg 16%
    15:00 +40°C° 0 mm 3 m/S 682 mmHg 14%
    16:00 +40°C° 0 mm 3 m/S 682 mmHg 15%
    17:00 +40°C° 0 mm 4 m/S 682 mmHg 15%
    18:00 +40°C° 0 mm 4 m/S 682 mmHg 15%
    19:00 +37°C° 0 mm 3 m/S 682 mmHg 20%
    20:00 +35°C° 0 mm 3 m/S 683 mmHg 24%
    21:00 +34°C° 0 mm 3 m/S 683 mmHg 29%
    22:00 +32°C° 0 mm 2 m/S 683 mmHg 31%
    23:00 +31°C° 0 mm 2 m/S 683 mmHg 33%

    26 Juli, Mittwoch

    Zeit Temperatur Niederschläge Wind Luftdruck Luftfeuchtigkeit
    00:00 +30°C° 0 mm 2 m/S 683 mmHg 35%
    01:00 +29°C° 0 mm 2 m/S 683 mmHg 35%
    02:00 +29°C° 0 mm 2 m/S 683 mmHg 36%
    03:00 +28°C° 0 mm 2 m/S 683 mmHg 37%
    04:00 +28°C° 0 mm 2 m/S 683 mmHg 37%
    05:00 +29°C° 0 mm 2 m/S 684 mmHg 36%
    06:00 +29°C° 0 mm 1 m/S 684 mmHg 35%
    07:00 +30°C° 0 mm 1 m/S 684 mmHg 31%
    08:00 +32°C° 0 mm 1 m/S 684 mmHg 28%
    09:00 +33°C° 0 mm 1 m/S 684 mmHg 24%
    10:00 +35°C° 0 mm 2 m/S 684 mmHg 22%
    11:00 +37°C° 0 mm 2 m/S 684 mmHg 19%
    12:00 +38°C° 0 mm 2 m/S 684 mmHg 17%
    13:00 +38°C° 0 mm 2 m/S 684 mmHg 15%
    14:00 +39°C° 0 mm 3 m/S 684 mmHg 14%
    15:00 +40°C° 0 mm 3 m/S 684 mmHg 13%
    16:00 +39°C° 0 mm 3 m/S 684 mmHg 13%
    17:00 +39°C° 0 mm 3 m/S 684 mmHg 13%
    18:00 +38°C° 0 mm 4 m/S 684 mmHg 13%
    19:00 +37°C° 0 mm 3 m/S 684 mmHg 17%
    20:00 +35°C° 0 mm 2 m/S 684 mmHg 20%
    21:00 +32°C° 0 mm 2 m/S 684 mmHg 24%
    22:00 +31°C° 0 mm 2 m/S 685 mmHg 26%
    23:00 +30°C° 0 mm 2 m/S 685 mmHg 29%

    27 Juli, Donnerstag

    Zeit Temperatur Niederschläge Wind Luftdruck Luftfeuchtigkeit
    00:00 +30°C° 0 mm 2 m/S 685 mmHg 32%
    01:00 +29°C° 0 mm 2 m/S 685 mmHg 33%
    02:00 +28°C° 0 mm 2 m/S 685 mmHg 34%
    03:00 +28°C° 0 mm 2 m/S 685 mmHg 36%
    04:00 +28°C° 0 mm 2 m/S 685 mmHg 36%
    05:00 +28°C° 0 mm 1 m/S 686 mmHg 35%
    06:00 +29°C° 0 mm 1 m/S 686 mmHg 35%
    07:00 +30°C° 0 mm 1 m/S 686 mmHg 31%
    08:00 +32°C° 0 mm 1 m/S 686 mmHg 27%
    09:00 +33°C° 0 mm 1 m/S 687 mmHg 23%
    10:00 +36°C° 0 mm 2 m/S 686 mmHg 21%
    11:00 +37°C° 0 mm 2 m/S 686 mmHg 18%
    12:00 +38°C° 0 mm 2 m/S 686 mmHg 16%
    13:00 +39°C° 0 mm 2 m/S 686 mmHg 15%
    14:00 +40°C° 0 mm 3 m/S 686 mmHg 14%
    15:00 +42°C° 0 mm 3 m/S 685 mmHg 13%
    16:00 +40°C° 0 mm 3 m/S 685 mmHg 13%
    17:00 +41°C° 0 mm 4 m/S 685 mmHg 14%
    18:00 +41°C° 0 mm 4 m/S 685 mmHg 15%
    19:00 +38°C° 0 mm 3 m/S 686 mmHg 19%
    20:00 +36°C° 0 mm 3 m/S 686 mmHg 22%
    21:00 +34°C° 0 mm 2 m/S 686 mmHg 26%
    22:00 +32°C° 0 mm 2 m/S 686 mmHg 28%
    23:00 +31°C° 0 mm 2 m/S 686 mmHg 31%
    Mehr zeigen